DW7955 Weather Reports


time (UTC)temp
C
wind
direction
speed
KPH
gust
KPH
rain 1hr
cm
rain 24hr
cm
rain mn
cm
humidity
%
barometer
mb
20260504181517 23 284 14.5 29.0 0.00 0.00 0.00 18 998.6
20260504180015 23 244 11.3 33.8 0.00 0.00 0.00 19 998.5
20260504174514 22 234 14.5 33.8 0.00 0.00 0.00 20 998.6
20260504173011 22 257 6.4 19.3 0.00 0.00 0.00 22 999.2
20260504171509 22 280 8.0 27.4 0.00 0.00 0.00 22 999.6
20260504081548 11 6 0.0 0.0 0.00 0.00 0.00 48 1003.2
20260504044523 18 13 8.0 20.9 0.00 0.00 0.00 25 1003.9
20260504043027 18 27 4.8 8.0 0.00 0.00 0.00 24 1003.7
20260504041531 19 34 6.4 14.5 0.00 0.00 0.00 21 1003.7
20260504040021 20 15 4.8 11.3 0.00 0.00 0.00 20 1003.8
20260504034521 19 12 3.2 11.3 0.00 0.00 0.00 22 1004.1
20260504033021 19 30 11.3 17.7 0.00 0.00 0.00 21 1004.0
20260504031520 19 100 0.0 0.0 0.00 0.00 0.00 24 1003.6
20260504030019 19 346 0.0 1.6 0.00 0.00 0.00 21 1003.4
20260504024520 20 144 0.0 1.6 0.00 0.00 0.00 21 1003.1
20260504023019 20 317 0.0 1.6 0.00 0.00 0.00 19 1003.1
20260504021518 21 15 0.0 1.6 0.00 0.00 0.00 18 1003.0
20260504020019 21 21 1.6 4.8 0.00 0.00 0.00 19 1002.8
20260504014524 21 58 3.2 6.4 0.00 0.00 0.00 17 1002.5
20260504013017 22 345 0.0 4.8 0.00 0.00 0.00 17 1002.5
20260504011517 23 346 4.8 9.7 0.00 0.00 0.00 15 1002.4
20260504010015 23 29 1.6 4.8 0.00 0.00 0.00 15 1002.4
20260504004520 23 356 4.8 16.1 0.00 0.00 0.00 15 1002.6
20260504003014 23 302 12.9 22.5 0.00 0.00 0.00 14 1002.5
20260504001514 24 338 1.6 16.1 0.00 0.00 0.00 14 1002.5
20260504000013 25 234 3.2 17.7 0.00 0.00 0.00 13 1002.6
20260503234511 25 246 4.8 11.3 0.00 0.00 0.00 12 1002.7
20260503233016 25 230 4.8 17.7 0.00 0.00 0.00 12 1002.7
20260503231509 25 288 14.5 72.4 0.00 0.00 0.00 12 1002.8
20260503230009 25 259 4.8 19.3 0.00 0.00 0.00 11 1002.9
20260503224507 25 163 3.2 16.1 0.00 0.00 0.00 12 1003.0
20260503223006 25 238 4.8 19.3 0.00 0.00 0.00 12 1003.3
20260503221502 25 248 4.8 14.5 0.00 0.00 0.00 11 1003.7
20260503220002 25 215 14.5 29.0 0.00 0.00 0.00 12 1003.8
20260503214557 25 263 8.0 17.7 0.00 0.00 0.00 11 1004.1
20260503213055 24 268 3.2 12.9 0.00 0.00 0.00 12 1004.6
20260503211552 23 214 4.8 22.5 0.00 0.00 0.00 13 1005.2
20260503210049 24 327 8.0 22.5 0.00 0.00 0.00 12 1005.7
20260503204547 23 197 11.3 22.5 0.00 0.00 0.00 13 1006.0
20260503203054 23 281 9.7 24.1 0.00 0.00 0.00 13 1006.4
20260503201549 23 260 4.8 20.9 0.00 0.00 0.00 13 1006.6
20260503200041 23 257 11.3 22.5 0.00 0.00 0.00 13 1006.8
20260503194541 22 319 12.9 22.5 0.00 0.00 0.00 14 1006.9
20260503193038 23 329 14.5 25.7 0.00 0.00 0.00 13 1007.2
20260503191536 23 285 8.0 27.4 0.00 0.00 0.00 15 1007.5
20260503190031 22 305 11.3 27.4 0.00 0.00 0.00 14 1008.0
20260503184528 22 305 9.7 22.5 0.00 0.00 0.00 16 1008.4
20260503183025 22 322 11.3 29.0 0.00 0.00 0.00 15 1008.8
20260503181523 22 271 8.0 24.1 0.00 0.00 0.00 16 1009.1